Location: Weatherford
(35.5260°N, 98.7070°W)
Time: 13:17:38
(UTC-05:00)

Amateur Radio Satellites - All Passes

Search period start: 01 October 2014 12:47
Search period end: 02 October 2014 12:47
Location: Weatherford, 35.5260°N, 98.7070°W

Satellite Date Start Highest point End Downlink Frequencies (MHz)
Time Altitude Azimuth
Oscar 16 01 Oct 13:17:12 13:20:52 20° 66° (ENE) 13:24:32 437.025 USB, Beacon 2401.1428
JAS-1B 01 Oct 13:17:29 13:22:02 18° 64° (ENE) 13:26:11 435.800 - 435.900 CW/SSB
RS-15 01 Oct 13:25:22 13:36:15 59° 248° (WSW) 13:47:37 29.354 - 29.394 USB, Beacon 29.352 USB
Oscar 19 01 Oct 14:13:29 14:18:38 69° 75° (ENE) 14:23:48 437.125 CW, 437.150 USB
TMSAT-1 01 Oct 14:24:20 14:26:11 12° 62° (ENE) 14:28:03 436.925 FM
ITAMSAT 1 01 Oct 14:26:38 14:31:21 37° 70° (ENE) 14:36:05 435.822 SSB
Uribyol 2 01 Oct 14:27:18 14:32:06 40° 71° (ENE) 14:36:56 436.500 FM
Saudisat 1A 01 Oct 14:32:54 14:37:16 72° 118° (ESE) 14:41:39 436.775 MHz
AO-7 01 Oct 14:54:07 14:57:04 12° 50° (NE) 15:00:01 29.400 - 29.500 MHz
Oscar 16 01 Oct 14:54:54 14:59:51 44° 261° (W) 15:04:49 437.025 USB, Beacon 2401.1428
AO-Echo 01 Oct 15:01:18 15:05:59 82° 257° (WSW) 15:10:43 ?
JAS-1B 01 Oct 15:04:18 15:12:14 74° 257° (WSW) 15:18:50 435.800 - 435.900 CW/SSB
AO-27 01 Oct 15:04:39 15:09:50 90° 256° (WSW) 15:15:03 436.795 MHz FM
Gurwin Techsat 1B 01 Oct 15:31:44 15:37:01 77° 75° (ENE) 15:42:20 435.225 FM
Oscar 19 01 Oct 15:56:38 15:58:23 12° 269° (W) 16:00:09 437.125 CW, 437.150 USB
TMSAT-1 01 Oct 16:00:06 16:05:23 78° 258° (WSW) 16:10:42 436.925 FM
ITAMSAT 1 01 Oct 16:06:54 16:10:53 22° 265° (W) 16:14:54 435.822 SSB
MaSat-1 01 Oct 16:07:15 16:10:28 74° 66° (ENE) 16:13:14 437.345 MHz
Uribyol 2 01 Oct 16:07:51 16:11:40 21° 265° (W) 16:15:31 436.500 FM
Saudisat 1A 01 Oct 16:15:25 16:17:19 13° 315° (NW) 16:19:13 436.775 MHz
Uosat F 01 Oct 16:23:39 16:27:48 27° 68° (ENE) 16:31:58 435.120 FM
Oscar 10/S400 01 Oct 16:38:57 16:57:18 53° 156° (SSE) 17:27:56 145.825 - 145.975 CW/USB, Beacon 145.810 USB
AO-7 01 Oct 16:40:06 16:48:16 65° 69° (ENE) 16:56:26 29.400 - 29.500 MHz
KITSAT 1 01 Oct 16:58:33 17:05:58 42° 109° (ESE) 17:13:24 435.175 FM
JAS-2 01 Oct 17:10:11 17:12:08 12° 61° (ENE) 17:14:06 435.800 - 435.900 CW/SSB, 435.910 FM
Gurwin Techsat 1B 01 Oct 17:16:39 17:17:29 10° 270° (W) 17:18:19 435.225 FM
AO-40 01 Oct 17:35:49 00:58:26 46° 184° (S) 06:51:49 Beacon 2401.320
Uosat F 01 Oct 18:02:09 18:06:27 29° 263° (W) 18:10:48 435.120 FM
OPAL 01 Oct 18:14:20 18:19:16 49° 102° (ESE) 18:24:06 ?
Hamsat 01 Oct 18:28:42 18:32:57 57° 75° (ENE) 18:37:11 145.90 MHz
Sapphire 01 Oct 18:31:26 18:35:14 19° 50° (NE) 18:39:00 437.095 MHz 1200 baud AX-25 AFSK
AO-7 01 Oct 18:35:11 18:41:29 24° 265° (W) 18:47:50 29.400 - 29.500 MHz
JAS-2 01 Oct 18:51:22 18:56:30 69° 258° (WSW) 19:01:51 435.800 - 435.900 CW/SSB, 435.910 FM
KITSAT 1 01 Oct 18:53:47 19:01:18 41° 306° (NW) 19:08:51 435.175 FM
PCSat 01 Oct 18:56:16 19:01:06 32° 56° (NE) 19:05:54 145.825 MHz
STRAND 1 01 Oct 19:18:06 19:21:16 16° 93° (E) 19:24:24 ?
SO-50 01 Oct 19:36:13 19:40:35 59° 116° (ESE) 19:45:05 436.795 FM
OPAL 01 Oct 19:54:25 19:57:42 18° 297° (WNW) 20:00:58 ?
PANSAT 01 Oct 20:10:19 20:13:12 20° 167° (SSE) 20:16:05 not established
Sapphire 01 Oct 20:13:42 20:19:02 58° 248° (WSW) 20:24:19 437.095 MHz 1200 baud AX-25 AFSK
SO-67 01 Oct 20:15:11 20:18:32 52° 260° (W) 20:21:55 435.3500 MHz FM
HO-68 01 Oct 20:21:35 20:26:33 21° 60° (ENE) 20:31:30 435.675 MHz FM
PCSat 01 Oct 20:39:43 20:44:25 31° 252° (WSW) 20:49:05 145.825 MHz
STRAND 1 01 Oct 20:55:42 21:00:41 50° 287° (WNW) 21:05:38 ?
ISS 01 Oct 21:14:07 21:15:56 14° 127° (SE) 21:17:45 145.800 FM
SO-50 01 Oct 21:18:56 21:21:33 15° 314° (NW) 21:24:12 436.795 FM
UKube-1 01 Oct 21:20:34 21:23:06 15° 66° (ENE) 21:25:38 145.840 MHz, 145.915 MHz
UOSAT-12 01 Oct 21:40:03 21:44:39 87° 298° (WNW) 21:49:22 437.025 FM, 437.400 FM
PANSAT 01 Oct 21:49:34 21:52:55 28° 180° (S) 21:56:15 not established
ZACube-1 01 Oct 22:01:54 22:04:20 14° 66° (ENE) 22:06:46 437.345 MHz
HO-68 01 Oct 22:06:26 22:13:32 70° 256° (WSW) 22:20:41 435.675 MHz FM
Oscar 11 01 Oct 22:24:20 22:28:38 63° 75° (ENE) 22:32:58 145.825 FM, Beacon 2401.500 USB
ISS 01 Oct 22:49:06 22:52:19 45° 322° (NW) 22:55:32 145.800 FM
FUNcube-1 01 Oct 22:50:30 22:54:51 49° 74° (ENE) 22:59:18 145.950 - 145.970 MHz USB
UKube-1 01 Oct 22:54:51 22:58:55 40° 261° (W) 23:03:02 145.840 MHz, 145.915 MHz
Saudisat 1A 01 Oct 23:02:52 23:06:31 25° 52° (NE) 23:10:10 436.775 MHz
UOSAT-12 01 Oct 23:24:07 23:25:30 11° 317° (NW) 23:26:53 437.025 FM, 437.400 FM
PANSAT 01 Oct 23:29:40 23:32:37 21° 192° (SSW) 23:35:34 not established
ZACube-1 01 Oct 23:35:52 23:40:14 49° 261° (W) 23:44:43 437.345 MHz
FUNcube-1 02 Oct 00:29:17 00:31:29 13° 268° (W) 00:33:42 145.950 - 145.970 MHz USB
Saudisat 1A 02 Oct 00:42:14 00:46:04 29° 247° (WSW) 00:49:53 436.775 MHz
KITSAT 1 02 Oct 00:56:20 01:00:19 14° 36° (NE) 01:04:18 435.175 FM
RS-15 02 Oct 01:34:55 01:43:53 30° 104° (ESE) 01:52:41 29.354 - 29.394 USB, Beacon 29.352 USB
Oscar 19 02 Oct 02:28:40 02:33:10 31° 97° (E) 02:37:39 437.125 CW, 437.150 USB
ITAMSAT 1 02 Oct 02:43:33 02:46:52 17° 93° (E) 02:50:11 435.822 SSB
Uribyol 2 02 Oct 02:43:59 02:47:33 18° 94° (E) 02:51:06 436.500 FM
KITSAT 1 02 Oct 02:49:33 02:57:32 61° 59° (ENE) 03:05:28 435.175 FM
JAS-1B 02 Oct 02:52:20 02:57:28 32° 99° (E) 03:03:03 435.800 - 435.900 CW/SSB
Oscar 16 02 Oct 03:09:26 03:14:36 84° 103° (ESE) 03:19:44 437.025 USB, Beacon 2401.1428
AO-Echo 02 Oct 03:11:09 03:15:57 41° 99° (E) 03:20:51 ?
AO-27 02 Oct 03:20:58 03:25:54 42° 99° (E) 03:30:50 436.795 MHz FM
RS-15 02 Oct 03:44:21 03:55:19 67° 303° (WNW) 04:06:12 29.354 - 29.394 USB, Beacon 29.352 USB
Gurwin Techsat 1B 02 Oct 03:51:17 03:56:15 39° 98° (E) 04:01:11 435.225 FM
Oscar 19 02 Oct 04:08:06 04:12:22 27° 292° (WNW) 04:16:36 437.125 CW, 437.150 USB
SO-50 02 Oct 04:10:53 04:14:57 26° 52° (NE) 04:19:03 436.795 FM
TMSAT-1 02 Oct 04:19:06 04:24:19 54° 100° (E) 04:29:29 436.925 FM
ITAMSAT 1 02 Oct 04:21:33 04:26:35 50° 288° (WNW) 04:31:36 435.822 SSB
Uribyol 2 02 Oct 04:22:13 04:27:12 46° 288° (WNW) 04:32:09 436.500 FM
JAS-1B 02 Oct 04:43:11 04:48:05 30° 291° (WNW) 04:53:20 435.800 - 435.900 CW/SSB
KITSAT 1 02 Oct 04:45:59 04:52:20 26° 255° (WSW) 04:58:40 435.175 FM
AO-7 02 Oct 04:46:07 04:52:37 25° 96° (E) 04:59:04 29.400 - 29.500 MHz
AO-Echo 02 Oct 04:50:43 04:54:25 21° 293° (WNW) 04:58:10 ?
Oscar 16 02 Oct 04:52:17 04:53:11 10° 299° (WNW) 04:54:06 437.025 USB, Beacon 2401.1428
AO-27 02 Oct 05:01:15 05:05:05 21° 294° (WNW) 05:08:56 436.795 MHz FM
ISS 02 Oct 05:20:07 05:23:22 50° 39° (NE) 05:26:36 145.800 FM
OPAL 02 Oct 05:26:02 05:31:10 65° 72° (ENE) 05:36:21 ?
Gurwin Techsat 1B 02 Oct 05:31:52 05:35:56 23° 293° (WNW) 05:39:59 435.225 FM
MaSat-1 02 Oct 05:46:09 05:50:55 56° 110° (ESE) 05:55:31 437.345 MHz
SO-50 02 Oct 05:51:11 05:55:32 34° 247° (WSW) 05:59:54 436.795 FM
TMSAT-1 02 Oct 06:00:25 06:03:45 17° 295° (WNW) 06:07:04 436.925 FM
JAS-2 02 Oct 06:02:42 06:07:48 21° 94° (E) 06:13:11 435.800 - 435.900 CW/SSB, 435.910 FM
RS-15 02 Oct 06:02:51 06:10:15 20° 330° (NNW) 06:17:43 29.354 - 29.394 USB, Beacon 29.352 USB
Uosat F 02 Oct 06:12:01 06:17:04 76° 285° (WNW) 06:22:05 435.120 FM
UOSAT-12 02 Oct 06:12:47 06:17:08 35° 54° (NE) 06:21:23 437.025 FM, 437.400 FM
Hamsat 02 Oct 06:19:30 06:21:11 12° 92° (E) 06:22:52 145.90 MHz
STRAND 1 02 Oct 06:31:27 06:34:50 18° 65° (ENE) 06:38:13 ?
AO-7 02 Oct 06:37:39 06:45:48 63° 292° (WNW) 06:53:56 29.400 - 29.500 MHz
ISS 02 Oct 06:58:12 06:59:43 13° 233° (SW) 07:01:13 145.800 FM
OPAL 02 Oct 07:08:04 07:10:25 13° 266° (W) 07:12:46 ?
MaSat-1 02 Oct 07:24:41 07:27:37 16° 304° (NW) 07:30:27 437.345 MHz
SO-67 02 Oct 07:43:11 07:44:38 12° 93° (E) 07:46:04 435.3500 MHz FM
JAS-2 02 Oct 07:46:15 07:53:02 66° 286° (WNW) 08:00:30 435.800 - 435.900 CW/SSB, 435.910 FM
Hamsat 02 Oct 07:53:22 07:57:21 43° 286° (WNW) 08:01:18 145.90 MHz
UOSAT-12 02 Oct 07:53:25 07:57:02 22° 250° (WSW) 08:00:36 437.025 FM, 437.400 FM
STRAND 1 02 Oct 08:08:44 08:13:36 47° 260° (W) 08:18:32 ?
RS-15 02 Oct 08:25:09 08:29:14 12° 8° (N) 08:33:22 29.354 - 29.394 USB, Beacon 29.352 USB
AO-7 02 Oct 08:34:22 08:36:56 12° 311° (NW) 08:39:30 29.400 - 29.500 MHz
Sapphire 02 Oct 09:10:00 09:14:31 28° 108° (ESE) 09:19:04 437.095 MHz 1200 baud AX-25 AFSK
SO-67 02 Oct 09:14:41 09:17:41 28° 287° (WNW) 09:20:40 435.3500 MHz FM
PCSat 02 Oct 09:34:36 09:39:49 53° 112° (ESE) 09:45:05 145.825 MHz
JAS-2 02 Oct 09:36:30 09:37:02 10° 301° (WNW) 09:37:34 435.800 - 435.900 CW/SSB, 435.910 FM
HO-68 02 Oct 09:38:12 09:44:06 27° 96° (E) 09:49:58 435.675 MHz FM
Oscar 11 02 Oct 10:16:35 10:18:55 14° 93° (E) 10:21:14 145.825 FM, Beacon 2401.500 USB
RS-15 02 Oct 10:37:23 10:46:56 31° 42° (NE) 10:56:44 29.354 - 29.394 USB, Beacon 29.352 USB
FUNcube-1 02 Oct 10:44:58 10:46:44 12° 91° (E) 10:48:30 145.950 - 145.970 MHz USB
UKube-1 02 Oct 10:45:52 10:50:00 40° 99° (E) 10:54:06 145.840 MHz, 145.915 MHz
Sapphire 02 Oct 10:52:52 10:57:46 35° 303° (WNW) 11:02:43 437.095 MHz 1200 baud AX-25 AFSK
PCSat 02 Oct 11:19:34 11:23:32 20° 309° (NW) 11:27:31 145.825 MHz
HO-68 02 Oct 11:25:06 11:31:59 51° 291° (WNW) 11:38:51 435.675 MHz FM
ZACube-1 02 Oct 11:28:21 11:32:38 40° 98° (E) 11:36:46 437.345 MHz
Oscar 11 02 Oct 11:51:12 11:55:15 40° 287° (WNW) 11:59:16 145.825 FM, Beacon 2401.500 USB
FUNcube-1 02 Oct 12:19:02 12:23:25 51° 286° (WNW) 12:27:41 145.950 - 145.970 MHz USB
UKube-1 02 Oct 12:23:13 12:25:49 16° 294° (WNW) 12:28:26 145.840 MHz, 145.915 MHz
